Location: D�nning
(49.2479°N, 12.8491°E)
Time: 02:53:46
(UTC+00:00)

Cosmos 2266 Rocket - Pass Details

Date: 18 September 2020
Orbit: 934 x 1008 km, 82.9° (Epoch: 24 October)

Event Time Altitude Azimuth Distance (km) Brightness Sun altitude
Rises 20:58:06 0° 349° (N) 3,617 7.8 -32.7°
Reaches altitude 10° 21:00:36 10° 348° (NNW) 2,663 7.0 -32.9°
Enters shadow 21:05:33 59° 325° (NW) 1,075 4.3 -33.4°
